| time (UTC) | temp F | wind direction | speed knots | gust knots | rain 1hr in | rain 24hr in | rain mn in | humidity % | barometer mb |
| 20260506091530 | 44 | 244 | 7.0 | 11.3 | 0.00 | 0.07 | 0.00 | 62 | 1015.5 |
| 20260506090032 | 45 | 274 | 7.8 | 12.2 | 0.00 | 0.07 | 0.00 | 61 | 1015.5 |
| 20260506084528 | 46 | 279 | 6.1 | 10.4 | 0.00 | 0.07 | 0.00 | 61 | 1015.4 |
| 20260506083026 | 46 | 265 | 4.3 | 9.6 | 0.00 | 0.07 | 0.00 | 61 | 1015.5 |
| 20260506081530 | 47 | 282 | 5.2 | 12.2 | 0.00 | 0.07 | 0.00 | 60 | 1015.4 |
| 20260506073031 | 48 | 277 | 8.7 | 13.0 | 0.00 | 0.07 | 0.00 | 58 | 1015.3 |
| 20260506071542 | 48 | 260 | 6.1 | 12.2 | 0.00 | 0.07 | 0.00 | 58 | 1015.3 |
| 20260506061531 | 48 | 238 | 5.2 | 8.7 | 0.00 | 0.07 | 0.00 | 65 | 1015.1 |
| 20260506044523 | 51 | 275 | 7.8 | 14.8 | 0.00 | 0.07 | 0.07 | 54 | 1014.6 |
| 20260506043016 | 51 | 245 | 8.7 | 15.6 | 0.00 | 0.07 | 0.07 | 56 | 1014.3 |
| 20260506041510 | 50 | 252 | 10.4 | 16.5 | 0.00 | 0.07 | 0.07 | 61 | 1014.0 |
| 20260506040014 | 48 | 217 | 3.5 | 7.0 | 0.00 | 0.07 | 0.07 | 79 | 1014.1 |
| 20260506034532 | 47 | 236 | 1.7 | 2.6 | 0.00 | 0.07 | 0.07 | 81 | 1013.8 |
| 20260506033030 | 47 | 175 | 0.0 | 3.5 | 0.00 | 0.07 | 0.07 | 80 | 1013.8 |
| 20260506031534 | 48 | 192 | 2.6 | 5.2 | 0.00 | 0.07 | 0.07 | 76 | 1013.6 |
| 20260506030025 | 49 | 194 | 3.5 | 6.1 | 0.00 | 0.07 | 0.07 | 74 | 1013.5 |
| 20260506024532 | 49 | 229 | 3.5 | 9.6 | 0.00 | 0.07 | 0.07 | 71 | 1013.2 |
| 20260506023017 | 50 | 202 | 5.2 | 10.4 | 0.00 | 0.07 | 0.07 | 71 | 1013.2 |
| 20260506021511 | 50 | 270 | 7.0 | 13.0 | 0.00 | 0.07 | 0.07 | 66 | 1012.8 |
| 20260506020027 | 49 | 238 | 7.8 | 16.5 | 0.00 | 0.07 | 0.07 | 68 | 1012.5 |
| 20260506014512 | 51 | 207 | 8.7 | 27.8 | 0.00 | 0.07 | 0.07 | 61 | 1012.7 |
| 20260506013032 | 56 | 216 | 7.0 | 11.3 | 0.00 | 0.07 | 0.07 | 51 | 1012.1 |
| 20260506011526 | 57 | 221 | 6.1 | 13.0 | 0.00 | 0.07 | 0.07 | 49 | 1011.6 |
| 20260506010030 | 60 | 246 | 6.1 | 12.2 | 0.00 | 0.07 | 0.07 | 46 | 1011.5 |
| 20260506004532 | 60 | 243 | 9.6 | 17.4 | 0.00 | 0.07 | 0.07 | 45 | 1011.6 |
| 20260506003010 | 61 | 248 | 7.8 | 20.9 | 0.00 | 0.07 | 0.07 | 45 | 1011.5 |
| 20260506001523 | 61 | 241 | 7.0 | 16.5 | 0.00 | 0.07 | 0.07 | 45 | 1011.5 |
| 20260506000025 | 62 | 264 | 9.6 | 16.5 | 0.00 | 0.07 | 0.07 | 43 | 1011.4 |
| 20260505234510 | 63 | 261 | 10.4 | 16.5 | 0.00 | 0.07 | 0.07 | 42 | 1011.4 |
| 20260505233017 | 64 | 250 | 8.7 | 15.6 | 0.00 | 0.07 | 0.07 | 42 | 1011.3 |
| 20260505231532 | 63 | 285 | 7.0 | 12.2 | 0.00 | 0.07 | 0.07 | 42 | 1011.1 |
| 20260505230041 | 63 | 265 | 5.2 | 15.6 | 0.00 | 0.07 | 0.07 | 43 | 1011.3 |
| 20260505224504 | 63 | 336 | 7.8 | 16.5 | 0.00 | 0.07 | 0.07 | 42 | 1011.2 |
| 20260505223009 | 63 | 279 | 9.6 | 18.2 | 0.00 | 0.07 | 0.07 | 42 | 1011.5 |
| 20260505221513 | 61 | 244 | 13.9 | 23.5 | 0.00 | 0.07 | 0.07 | 45 | 1011.7 |
| 20260505220026 | 64 | 237 | 12.2 | 19.1 | 0.00 | 0.07 | 0.07 | 40 | 1011.5 |
| 20260505214519 | 66 | 234 | 8.7 | 15.6 | 0.00 | 0.07 | 0.07 | 41 | 1011.4 |
| 20260505213047 | 65 | 254 | 7.8 | 13.9 | 0.00 | 0.07 | 0.07 | 42 | 1011.5 |
| 20260505211528 | 65 | 234 | 7.8 | 19.1 | 0.00 | 0.07 | 0.07 | 43 | 1011.6 |
| 20260505210011 | 65 | 288 | 7.0 | 18.2 | 0.00 | 0.07 | 0.07 | 48 | 1011.7 |
| 20260505204508 | 64 | 285 | 10.4 | 15.6 | 0.00 | 0.07 | 0.07 | 48 | 1011.7 |
| 20260505203039 | 61 | 331 | 9.6 | 14.8 | 0.00 | 0.07 | 0.07 | 53 | 1011.9 |
| 20260505201510 | 59 | 263 | 7.8 | 15.6 | 0.00 | 0.07 | 0.07 | 51 | 1011.8 |
| 20260505200026 | 59 | 205 | 9.6 | 20.9 | 0.00 | 0.07 | 0.07 | 52 | 1012.0 |
| 20260505194516 | 61 | 199 | 6.1 | 16.5 | 0.00 | 0.07 | 0.07 | 51 | 1012.1 |
| 20260505193013 | 60 | 227 | 7.8 | 15.6 | 0.00 | 0.07 | 0.07 | 59 | 1012.6 |
| 20260505191527 | 58 | 234 | 4.3 | 13.0 | 0.00 | 0.07 | 0.07 | 63 | 1013.1 |
| 20260505190019 | 56 | 221 | 4.3 | 13.0 | 0.00 | 0.07 | 0.07 | 65 | 1013.4 |
| 20260505184523 | 55 | 215 | 7.8 | 13.9 | 0.00 | 0.07 | 0.07 | 69 | 1013.8 |
| 20260505183022 | 53 | 206 | 6.1 | 14.8 | 0.00 | 0.07 | 0.07 | 77 | 1013.8 |
| 20260505181521 | 53 | 225 | 5.2 | 13.0 | 0.00 | 0.07 | 0.07 | 80 | 1014.3 |
| 20260505180008 | 50 | 202 | 3.5 | 11.3 | 0.00 | 0.07 | 0.07 | 86 | 1014.2 |
| 20260505174530 | 49 | 235 | 3.5 | 10.4 | 0.00 | 0.07 | 0.07 | 88 | 1014.4 |
| 20260505173039 | 50 | 239 | 5.2 | 9.6 | 0.01 | 0.07 | 0.07 | 90 | 1014.3 |
| 20260505171530 | 49 | 188 | 4.3 | 7.8 | 0.01 | 0.07 | 0.07 | 91 | 1014.2 |
| 20260505170029 | 48 | 187 | 4.3 | 7.8 | 0.03 | 0.07 | 0.07 | 91 | 1014.3 |
| 20260505164544 | 48 | 212 | 2.6 | 5.2 | 0.04 | 0.07 | 0.07 | 90 | 1014.5 |
| 20260505163025 | 47 | 198 | 2.6 | 5.2 | 0.04 | 0.06 | 0.06 | 90 | 1014.3 |
| 20260505161542 | 47 | 217 | 1.7 | 5.2 | 0.05 | 0.06 | 0.06 | 90 | 1014.5 |
| 20260505153013 | 48 | 203 | 2.6 | 5.2 | 0.02 | 0.02 | 0.02 | 86 | 1014.4 |
| 20260505151522 | 47 | 238 | 2.6 | 11.3 | 0.01 | 0.01 | 0.01 | 83 | 1014.5 |
| 20260505124527 | 52 | 278 | 6.1 | 11.3 | 0.00 | 0.00 | 0.00 | 57 | 1014.1 |
| 20260505123029 | 52 | 263 | 8.7 | 13.9 | 0.00 | 0.00 | 0.00 | 57 | 1014.3 |
| 20260505121537 | 51 | 258 | 7.8 | 13.0 | 0.00 | 0.00 | 0.00 | 57 | 1014.0 |
| 20260505120032 | 52 | 284 | 3.5 | 8.7 | 0.00 | 0.00 | 0.00 | 56 | 1013.9 |
| 20260505114538 | 52 | 269 | 5.2 | 9.6 | 0.00 | 0.00 | 0.00 | 55 | 1014.1 |
| 20260505113030 | 52 | 266 | 5.2 | 12.2 | 0.00 | 0.00 | 0.00 | 55 | 1014.3 |
| 20260505111532 | 52 | 260 | 6.1 | 12.2 | 0.00 | 0.00 | 0.00 | 55 | 1014.1 |
| 20260505101530 | 52 | 261 | 5.2 | 13.9 | 0.00 | 0.00 | 0.00 | 54 | 1014.0 |
| 20260505100039 | 52 | 243 | 6.1 | 12.2 | 0.00 | 0.00 | 0.00 | 52 | 1014.3 |
| 20260505094539 | 53 | 269 | 6.1 | 12.2 | 0.00 | 0.00 | 0.00 | 51 | 1014.0 |
| 20260505093033 | 53 | 240 | 7.8 | 15.6 | 0.00 | 0.00 | 0.00 | 50 | 1014.1 |